Theta_e
355 363 363 364 363 363 363 364 364 364 362 362 362 361 361 361 361 360 362 363 363 363 360 360 359 360 359 357 357 357 357 355 354 353 353 352 351 351 350 350 349 344 348
358 364 362 364 363 363 362 363 363 363 363 363 362 361 361 361 359 360 361 362 362 362 359 357 358 358 358 356 355 355 355 355 356 354 353 351 352 351 349 349 347 345 347
359 364 363 363 363 363 361 361 362 362 362 362 361 361 361 360 360 360 361 362 362 359 358 356 356 356 355 355 355 354 354 354 355 355 353 352 351 353 352 350 348 349 349
361 363 363 363 363 363 361 360 360 360 361 360 360 360 360 359 360 361 361 362 361 358 356 354 354 354 354 354 354 354 353 353 353 354 350 349 349 352 353 351 351 351 350
361 364 364 363 362 362 361 360 359 359 359 359 359 359 359 359 360 360 361 361 360 358 357 356 354 353 353 353 353 353 353 353 351 348 348 352 354 349 352 351 350 350 350
360 363 363 363 361 361 361 360 358 358 358 358 358 359 359 360 360 360 360 360 359 357 356 355 354 353 353 353 353 353 353 354 354 354 355 356 354 353 352 354 352 350 351
358 362 363 362 361 361 361 360 358 357 357 357 358 359 359 359 359 360 359 359 359 357 356 353 352 352 353 352 352 352 351 350 351 354 353 353 351 349 351 352 357 355 352
357 361 361 362 361 360 359 359 358 356 356 356 357 358 359 359 359 359 359 359 358 356 355 353 351 351 350 350 348 347 349 352 350 351 349 350 349 350 353 354 357 356 355
357 359 361 361 360 360 358 358 358 357 356 355 356 356 357 358 358 358 359 359 358 356 354 352 350 350 348 348 348 347 348 348 349 349 344 344 348 349 350 355 359 358 356
356 357 359 360 358 355 356 358 357 358 357 356 356 356 357 357 357 357 355 356 356 354 352 351 350 349 348 347 347 346 346 347 343 341 344 346 347 350 352 355 359 359 357
353 356 357 357 357 354 352 355 357 358 357 356 356 356 354 352 353 354 354 355 354 353 353 351 350 349 349 348 346 345 345 344 343 345 348 348 351 356 359 359 357 358 356
349 353 354 355 355 355 351 354 353 352 352 352 352 353 352 355 355 352 353 354 354 353 352 351 350 349 348 346 343 342 340 342 345 351 352 351 354 357 357 357 356 355 352
350 350 352 354 354 354 352 353 352 351 352 353 353 354 354 353 353 351 352 351 353 352 349 350 349 349 345 347 345 343 344 346 349 352 349 347 349 354 354 352 348 347 345
349 350 355 352 351 356 354 351 351 349 351 350 351 353 351 349 351 350 348 350 351 350 351 352 350 351 351 349 346 347 347 348 348 347 346 342 344 350 350 349 347 342 340
348 349 351 350 354 355 354 352 351 350 350 350 351 351 349 347 347 348 348 348 349 352 353 352 352 351 351 350 350 349 348 347 346 345 343 339 340 343 341 340 341 341 340
348 347 350 352 356 356 354 354 352 351 352 352 351 350 350 347 347 345 348 347 348 352 354 355 354 353 353 351 348 349 347 345 344 343 342 342 339 341 341 340 341 342 342
349 347 347 353 355 355 354 354 352 352 351 350 351 353 349 349 349 347 344 346 349 353 355 356 354 353 351 349 346 345 342 339 337 336 338 338 341 340 341 339 338 340 341
349 347 347 350 353 352 353 354 352 352 351 351 351 351 351 350 347 348 347 349 351 351 352 353 350 348 347 345 344 342 339 337 333 335 335 335 335 339 333 331 331 332 334
351 350 348 351 349 348 350 352 353 354 352 350 351 351 351 347 347 350 349 352 354 352 351 349 344 346 343 341 337 336 336 332 331 332 336 335 332 330 329 330 328 329 331
350 350 349 349 348 348 351 351 350 350 350 351 349 349 352 349 347 349 351 353 353 349 345 343 341 336 336 334 333 333 334 330 333 332 328 327 328 328 328 329 328 327 327
350 350 350 349 350 349 347 345 345 344 347 347 348 351 351 350 348 351 350 350 349 347 342 339 337 335 332 333 331 333 331 333 335 330 328 327 326 326 327 327 326 326 326
348 349 348 348 348 348 347 348 345 346 346 347 349 351 352 351 351 350 350 347 344 339 338 338 338 334 329 334 331 331 325 328 333 335 329 326 327 326 324 324 325 325 326
347 347 348 349 348 349 349 348 347 347 347 346 346 346 351 352 351 349 347 342 339 338 333 336 334 332 329 333 334 330 325 323 327 331 329 328 326 325 325 324 323 323 323
346 348 347 348 347 347 348 347 348 341 339 342 346 349 350 351 349 344 339 335 334 335 334 334 336 333 333 330 331 330 330 329 323 319 326 325 324 324 324 322 321 321 322
346 347 348 347 347 349 348 349 346 347 346 348 345 342 342 343 341 338 335 333 333 333 336 337 336 334 332 331 329 326 323 323 324 317 313 317 321 322 321 319 321 320 322
345 345 346 345 346 348 348 349 351 349 346 340 338 336 336 338 333 332 335 335 335 335 336 334 332 330 327 326 325 324 322 320 319 318 315 316 315 316 318 321 318 318 320
Wind_Speed
16 20 22 17 17 18 20 20 21 22 22 21 20 19 19 18 19 18 17 15 14 13 13 13 13 13 12 12 12 12 11 12 12 11 11 10 9 8 6 5 7 7 7
21 21 23 19 17 18 19 20 21 21 20 20 20 19 18 18 18 17 16 14 13 12 12 12 11 11 11 11 10 11 11 11 11 11 11 10 9 7 6 7 6 6 8
21 20 22 20 18 17 18 19 21 21 20 19 19 19 18 18 17 17 15 14 12 13 12 12 12 11 11 11 10 10 10 9 8 8 7 5 5 6 8 8 7 7 8
20 18 20 21 20 19 18 18 19 21 20 19 17 18 17 17 16 16 14 13 13 13 13 12 12 11 11 11 10 10 10 10 9 8 6 5 4 6 6 6 7 7 8
19 18 19 19 20 19 19 18 18 20 20 20 19 18 17 17 16 14 13 13 13 13 12 11 11 10 10 10 9 9 8 8 8 7 4 2 2 5 7 7 9 11 10
18 18 21 19 19 19 19 19 19 20 20 20 20 19 18 17 16 14 14 13 13 13 12 11 11 10 10 9 9 8 7 7 8 5 3 2 6 6 8 10 9 8 5
20 18 19 19 19 19 20 20 20 20 20 20 20 19 18 17 16 15 13 12 11 12 11 10 8 7 7 7 6 5 4 2 5 1 4 5 6 8 6 11 11 10 10
21 19 18 18 20 20 20 20 19 19 19 19 18 18 17 16 15 13 12 11 10 9 9 8 7 6 5 4 3 2 3 4 3 3 5 4 4 7 6 4 9 12 11
19 18 17 18 18 20 20 20 20 20 19 18 17 16 16 15 13 12 10 9 8 8 8 7 6 6 5 4 3 2 1 1 5 3 6 4 4 8 7 5 10 12 11
17 17 17 16 18 17 16 20 19 19 19 18 17 16 15 13 11 10 9 7 7 7 7 6 5 4 4 3 3 1 0 2 4 5 4 4 9 11 11 8 10 13 12
15 17 16 16 15 16 16 16 17 19 19 18 16 15 12 9 11 12 7 8 8 7 6 5 4 4 4 4 3 1 3 2 3 2 3 7 10 11 13 11 9 8 8
20 20 17 16 16 16 13 16 14 14 12 12 13 14 10 10 9 7 7 7 6 6 5 3 3 2 3 1 2 5 2 2 3 1 3 8 9 10 10 4 3 3 5
20 15 17 16 16 17 14 11 8 8 8 9 14 12 10 8 7 6 5 4 4 5 3 4 4 2 2 1 1 2 1 2 1 1 5 8 11 10 10 12 10 10 8
22 18 19 17 13 16 11 10 11 9 9 9 11 14 10 8 9 8 6 5 4 3 3 3 2 2 1 1 2 2 1 1 2 2 3 6 7 5 6 6 6 4 3
20 18 18 14 16 15 14 11 11 10 10 10 11 12 9 9 8 7 6 6 4 3 3 3 3 2 1 2 2 1 1 2 3 3 3 5 4 3 3 3 4 6 6
20 18 16 19 18 16 13 14 11 10 10 10 10 10 12 8 8 9 8 6 5 4 3 2 2 2 2 3 3 1 2 3 4 5 4 2 4 6 5 7 10 11 10
21 18 17 20 19 17 16 14 12 10 10 9 8 11 10 8 8 6 7 6 5 4 3 2 2 2 1 1 2 2 2 3 3 4 3 3 2 3 9 12 12 12 11
20 19 18 17 19 16 13 12 10 9 9 8 7 8 11 8 7 6 6 5 5 3 3 2 3 2 2 1 1 3 3 4 5 2 2 3 3 3 6 11 12 13 14
21 21 20 19 20 15 15 12 11 11 9 9 8 8 10 8 7 7 5 4 5 4 3 4 3 1 1 2 3 3 3 3 2 3 6 7 7 6 5 6 10 12 15
21 19 18 16 17 15 13 10 9 9 9 7 8 7 10 7 9 7 5 5 5 5 5 4 4 4 1 2 4 3 2 3 3 5 6 6 7 7 7 7 6 6 10
19 20 22 20 18 14 13 13 11 11 9 8 6 9 10 8 10 8 4 5 5 5 6 5 4 3 3 4 4 2 3 4 5 5 5 4 6 5 7 7 5 6 6
23 21 20 20 18 16 12 10 8 9 7 7 7 7 7 8 8 7 6 6 7 6 6 5 3 2 3 4 2 2 1 4 3 2 3 3 6 4 5 6 6 7 8
21 22 21 21 20 17 14 10 8 9 7 8 8 7 8 9 9 9 8 7 6 4 5 5 3 2 3 3 4 3 1 2 4 3 4 1 4 4 5 7 6 7 9
21 21 20 20 19 17 18 14 13 12 10 7 8 7 7 9 8 8 10 7 7 5 7 5 3 4 3 3 3 4 4 3 3 3 2 1 4 8 7 8 5 6 8
20 20 18 17 17 17 17 14 13 11 9 8 7 9 7 8 9 10 9 7 7 6 6 6 5 5 4 2 2 1 2 2 2 3 7 5 7 5 6 9 8 7 6
15 16 18 19 17 17 17 16 15 14 12 9 8 7 6 6 7 10 10 8 7 8 8 7 7 8 7 5 4 4 3 3 3 4 6 9 10 8 9 3 6 7 6
Wind_Direction
158 150 154 152 146 140 139 140 134 133 135 137 139 140 141 139 133 136 136 132 127 123 119 121 120 116 117 112 110 111 116 121 124 126 128 129 130 136 140 142 157 162 153
151 151 154 150 149 146 146 140 133 130 132 136 137 139 140 136 133 133 132 128 125 123 120 116 113 110 108 106 108 114 120 125 132 135 135 133 139 145 169 179 190 137 169
150 151 154 150 151 151 150 137 132 132 132 134 135 136 136 131 133 133 130 128 126 125 124 121 119 118 116 114 115 116 120 126 136 137 131 133 139 187 192 195 189 187 186
148 151 153 152 152 155 143 136 134 132 131 130 129 131 132 130 131 128 127 129 131 132 129 127 126 125 125 125 128 130 138 144 148 146 174 163 169 164 206 203 203 205 210
152 153 153 154 148 147 139 136 134 131 130 130 131 130 130 132 131 129 130 133 135 135 134 131 128 129 130 133 136 141 149 152 153 185 152 178 229 155 213 217 213 215 220
154 158 153 150 146 143 140 138 137 133 132 133 134 135 136 135 131 132 137 139 142 144 143 139 140 141 142 144 149 152 158 175 196 186 196 213 279 19 272 240 238 246 235
157 158 156 149 144 142 142 141 140 137 138 138 137 138 138 139 140 143 147 146 147 146 144 142 139 140 145 148 149 156 170 199 267 322 334 343 352 323 297 251 227 224 225
157 156 156 151 146 146 146 143 141 140 141 139 140 140 138 143 144 146 149 152 151 146 140 133 131 131 123 116 109 75 27 354 251 319 313 300 339 314 335 251 223 229 229
157 155 160 160 151 148 148 146 146 143 142 140 140 141 145 146 148 151 149 146 144 136 129 128 133 130 120 112 107 100 116 303 281 301 306 300 4 304 301 254 229 231 229
162 160 160 160 161 161 156 150 149 144 144 142 143 145 146 145 146 142 140 143 139 136 135 133 129 124 117 113 105 105 344 228 285 289 284 301 303 295 283 257 234 229 224
166 164 162 163 165 165 160 156 150 150 147 144 146 147 146 160 161 159 138 149 156 141 130 139 138 139 115 105 93 149 227 228 260 294 306 2 314 306 292 268 266 244 238
173 171 167 167 167 163 162 161 160 156 159 159 161 163 166 164 165 167 157 162 145 139 147 149 140 136 195 197 186 210 251 265 250 331 49 9 353 358 6 353 274 66 68
173 170 176 164 167 170 165 166 165 166 163 167 166 166 166 164 165 172 159 167 161 167 180 185 182 204 170 249 269 277 274 257 37 33 68 5 8 26 44 58 66 72 72
180 177 176 168 167 173 161 173 168 173 173 172 175 173 168 172 174 173 166 158 188 177 166 187 221 223 227 347 298 290 186 10 18 346 46 11 2 30 57 68 84 102 151
184 180 177 168 174 170 169 170 177 179 182 180 178 178 173 176 174 174 160 164 177 180 184 191 223 237 206 229 259 297 27 339 347 348 338 22 344 339 12 360 330 314 315
187 181 174 178 175 172 174 174 178 185 183 186 183 181 183 179 172 170 161 172 167 192 207 219 274 275 264 250 229 302 329 335 346 344 340 6 3 0 359 358 339 331 315
188 180 185 179 176 176 177 180 185 186 187 189 186 181 182 180 183 179 162 168 177 167 218 226 225 205 129 173 220 266 312 347 356 353 332 355 52 85 25 15 6 355 349
180 179 183 184 177 177 180 183 186 187 193 186 181 181 186 175 162 181 169 168 153 159 186 196 215 123 118 247 298 313 323 320 351 357 358 342 28 32 79 25 12 7 3
180 177 180 185 180 177 182 182 188 186 195 190 187 181 176 168 161 194 175 153 137 143 149 165 141 87 131 312 314 313 328 353 27 74 73 76 66 54 33 23 14 24 14
176 176 176 185 180 176 180 177 183 185 192 188 187 183 170 167 168 185 193 147 133 132 140 124 104 74 53 351 305 314 21 95 103 111 90 82 65 55 32 15 358 3 13
175 174 180 185 182 177 184 179 182 188 187 184 183 179 175 169 177 178 179 127 123 123 122 135 113 154 86 25 294 135 112 121 111 117 84 71 50 46 22 15 2 354 346
178 180 181 187 181 184 187 176 181 177 192 182 175 176 163 173 164 165 154 134 124 121 135 127 145 145 72 28 1 270 151 154 135 135 119 86 37 14 15 5 348 355 343
180 183 187 183 182 184 181 163 142 154 150 169 178 166 167 161 155 153 137 126 114 125 120 112 132 141 136 73 29 343 291 4 321 148 175 224 354 345 337 353 348 339 333
189 187 184 185 181 181 176 177 180 179 178 181 168 161 149 144 151 131 116 103 121 123 114 125 123 123 124 121 136 62 46 357 330 298 163 249 298 327 338 337 323 322 332
187 189 185 179 181 181 182 180 177 181 164 144 136 136 125 138 133 121 116 121 112 117 119 116 118 91 91 81 50 97 73 65 57 304 302 321 314 325 323 322 327 323 324
189 184 181 178 180 181 182 180 181 175 157 138 141 131 135 131 122 109 95 128 132 128 125 114 98 86 83 80 72 48 22 359 354 321 305 315 320 329 331 300 321 327 320